Regional Weather Roundup
Issued by NWS

Home | Current Version | Previous Version | Text Only | Print | Product List | Glossary Off
Versions: 1 2 3 4 5 6 7 8 9 10 11 12 13 14 15 16 17 18 19 20 21 22 23 24 25 26 27 28 29 30 31 32 33 34 35 36 37 38 39 40 41 42 43 44 45 46 47 48 49 50

000
ASUS45 KTFX 011919
RWRMT
MONTANA HOURLY WEATHER ROUNDUP
NATIONAL WEATHER SERVICE GREAT FALLS MT
1219 PM MST SUN FEB 1 2015

NOTE: "FAIR" INDICATES FEW OR NO CLOUDS BELOW 12000 FEET WITH NO
SIGNIFICANT WEATHER AND/OR OBSTRUCTIONS TO VISIBILITY.

* THESE STATIONS ARE NOT UNDER NWS QUALITY CONTROL. THEY DO NOT
   REPORT WEATHER SUCH AS PRECIPITATION OR FOG.

MTZ001>007-043-012000-
WEST OF THE DIVIDE
CITY           SKY/WX    TMP DP  RH WIND       PRES   REMARKS
KALISPELL      CLOUDY    27  18  69 N3        30.14F
MISSOULA       LGT SNOW  27  21  78 CALM      30.15F VSB 2 1/2
BUTTE          CLOUDY    23  16  74 CALM      30.08F
MULLAN PASS    LGT SNOW  25  19  78 S7        29.99F VSB 1 1/4 WCI  17
* ANACONDA     PTSUNNY   30  16  56 SE13G18    N/A   WCI  20
* ESSEX        N/A       20   9  62 NW1        N/A
* EUREKA APT   PTSUNNY   28  21  75 NE5       30.13F WCI  22
* HAMILTON APT CLOUDY    30  21  69 NE6       30.10F WCI  24
* LIBBY APT    CLOUDY    30  27  89 CALM      30.13F VSB 1 1/4
* LINCOLN      N/A       17   9  71 SE2        N/A
* LOOKOUT PASS N/A       24  23  96 SW6G11     N/A   WCI  17
* POLSON       N/A       27  25  92 SE1        N/A
* RONAN APT    CLOUDY    27  25  92 N/A        N/A
* SEELEY LAKE  N/A       24  14  66 E1G6       N/A
* THOMP F APT  CLOUDY    25  18  75 N/A        N/A
$$

MTZ008-052>055-012000-
SOUTHWEST MONTANA
CITY           SKY/WX    TMP DP  RH WIND       PRES   REMARKS
BOZEMAN        PTCLDY    23  16  74 CALM      30.15F
DILLON         CLOUDY    21  16  81 W5        30.12F WCI  14
* W YELLOWSTON PTCLDY    23  15  71 W1         N/A
* THREE FORKS  PTCLDY    25  21  85 N/A        N/A
* BOULDER HILL N/A       18  12  77 SW14G20    N/A   WCI   4
* MONIDA PASS  N/A       19  19 100 SE17       N/A   WCI   4
* RAYNOLDS PAS N/A       19   2  47 S17        N/A   WCI   4
* WHITEHALL    N/A       24  13  63 SW4G9      N/A
* WISE RIVER   N/A       19  10  68 W3         N/A
$$

MTZ009>010-012-014-046-048-049-054-012000-
EAST SLOPES AND CENTRAL MONTANA
CITY           SKY/WX    TMP DP  RH WIND       PRES   REMARKS
CUT BANK       PTSUNNY   10   7  88 S8        30.03F WCI  -2
GREAT FALLS    PTSUNNY   19  12  74 SW3       30.05F
HELENA         PTSUNNY   21  10  62 W3        30.16F
MALMSTROM AFB  PTSUNNY   12  12 100 N5        30.08F WCI   4
* CONRAD       PTCLDY    16   9  74 E8         N/A   WCI   5
* DEARBORN     N/A       27  15  61 S14        N/A   WCI  16
* EAST GLACIER N/A       28  12  51 W26G32     N/A   WCI  13
* MONARCH      N/A       26  11  53 S10        N/A   WCI  16
* PENDROY      N/A       21  13  71 SW9        N/A   WCI  11
* ROGERS PASS  N/A       21  15  78 S4G14      N/A
* SWEET GRASS  N/A        8   6  91 S24G29     N/A   WCI -13
* WHITE SULPH  N/A       27  16  63 S13G19     N/A   WCI  16
$$

MTZ011-013-016-021-035-040-045-047-050-051-012000-
NORTH CENTRAL MONTANA
CITY           SKY/WX    TMP DP  RH WIND       PRES   REMARKS
HAVRE          SUNNY      1  -4  79 E8        30.19F WCI -13
LEWISTOWN      SUNNY     25  12  58 E8        30.08F WCI  16
* N BAR RANCH  SUNNY     19  10  68 S7        30.11F WCI  10
* CHINOOK      SUNNY      1  -2  87 E5        30.22F WCI  -9
* CHESTER      N/A       10   4  76 SE6G13     N/A
* DENTON       N/A       22  13  68 S15G20     N/A   WCI   9
* GEYSER       N/A       24  10  55 S1         N/A
* JUDITH GAP   N/A       11  10  96 S16        N/A   WCI  -6
* LOMA         N/A        6   2  83 E4         N/A
$$

MTZ017>020-022>027-061-062-012000-
NORTHEAST MONTANA
CITY           SKY/WX    TMP DP  RH WIND       PRES   REMARKS
GLASGOW        SUNNY      3  -2  79 SE9       30.32F WCI -11
GLENDIVE       SUNNY      7   0  73 S10       30.37F WCI  -7
JORDAN         SUNNY     12   5  73 S10       30.28F WCI  -1
SIDNEY         SUNNY      3  -2  79 S12       30.42F WCI -14
WOLF POINT     SUNNY      7  -2  66 SW3       30.39F
* BEAVER HILL  N/A        4  -1  79 SW9        N/A   WCI -10
* CIRCLE       N/A        9   5  84 S5         N/A
* LINDSAY DVD  N/A        6   3  87 S4         N/A
* NAVAJO       N/A        3  -1  83 SW13G19    N/A   WCI -14
* PLENTYWOOD A SUNNY      3  -2  79 SW9       30.33F WCI -11
* POPLAR APT   SUNNY      7  -4  60 N/A       30.39F
* SACO         N/A        0  -5  79 E9         N/A   WCI -15
* SCOBEY APT   SUNNY      3  -6  66 S10G17     N/A   WCI -12
$$

MTZ028>042-056>058-012000-
SOUTHCENTRAL AND SOUTHEAST MONTANA
CITY           SKY/WX    TMP DP  RH WIND       PRES   REMARKS
BAKER          SUNNY      7   1  76 W8        30.34F WCI  -6
LIVINGSTON     PTCLDY    19  12  74 E7        30.12F WCI  10
MILES CITY     SUNNY      9   1  70 S8        30.35F WCI  -3
* BIG TIMBER A PTCLDY    12   9  88 E6        30.15F WCI   2
* FORSYTH APT  SUNNY     16   7  67 SE6       30.32F WCI   7
* LAUREL APT   SUNNY     16   1  51 N/A        N/A
* ROUNDUP APT  SUNNY     18   7  62 S10G20     N/A   WCI   6
* ALZADA       N/A        8   4  84 SW6        N/A   WCI  -2
* HYSHAM       N/A       16   4  59 SW3G10     N/A
* LAME DEER    N/A       13   9  84 SW5G11     N/A   WCI   5
* REED POINT   N/A       18   9  68 E6         N/A   WCI  10
* ROSCOE HILL  N/A       19  13  77 NW1        N/A
$$

REGIONAL REPORTS...DAKOTAS
CITY           SKY/WX    TMP DP  RH WIND       PRES   REMARKS
WILLISTON      SUNNY      1  -6  72 SW9       30.41F WCI -14
DICKINSON      SUNNY      0  -9  65 W6        30.34F WCI -12
BEACH          SUNNY      5   0  80 SW5       30.35F WCI  -5
CROSBY         SUNNY      5  -2  72 SW12G20   30.37F WCI -11
TIOGA          SUNNY      1  -9  62 W10       30.38F WCI -15
WATFORD CITY   SUNNY      1  -9  62 SW12      30.38F WCI -16
BISMARCK       SUNNY      1 -13  51 VRB6      30.48F WCI -11
GRAND FORKS    SUNNY     -2 -15  53 N8        30.54F WCI -17
FARGO          SUNNY      3 -11  51 N15G23    30.48F WCI -16
BUFFALO SD     SUNNY      7   1  76 W9        30.27F WCI  -6
RAPID CITY     SUNNY     10   3  73 N15       30.32F WCI  -7
$$

REGIONAL REPORTS...WYOMING/IDAHO/WASHINGTON
CITY           SKY/WX    TMP DP  RH WIND       PRES   REMARKS
GILLETTE       SUNNY     16   3  56 NW5       30.24F WCI   8
SHERIDAN       SUNNY     19   7  59 S3        30.24F
CODY           CLOUDY    25  18  75 SE9       30.14F WCI  16
YELLOWSTONE LA PTCLDY    18  10  71 CALM      30.14F
SALMON         CLOUDY    25  18  75 N3        30.21F
MULLAN PASS    LGT SNOW  25  19  78 S7        29.99S VSB 1 1/4 WCI  17
SAND POINT     LGT SNOW  32  32 100 NE5       30.14F VSB 1 3/4 WCI  27
SPOKANE        LGT SNOW  30  28  92 NE5       30.11F VSB 1 1/4 WCI  25
$$

REGIONAL REPORTS...ALBERTA
CITY           SKY/WX    TMP DP  RH WIND       PRES   REMARKS
CALGARY        CLOUDY    14   7  73 CALM      29.94F
LETHBRIDGE     CLOUDY    25  18  75 SW9       29.99F WCI  16
MEDICINE HAT   PTSUNNY   12   7  80 NE5       30.10F WCI   4
EDMONTON       FOG       -2  -8  75 SW2       30.10F
WATERTON GATE  N/A       30  18  61 SW17G26    N/A   WCI  18
CARDSTON       N/A       28  25  89 SE5        N/A   WCI  22
MILK RIVER     N/A       10   9  96 S18        N/A   WCI  -8
$$

REGIONAL REPORTS...SASKATCHEWAN
CITY           SKY/WX    TMP DP  RH WIND       PRES   REMARKS
SWIFT CURRENT  SUNNY      9   5  84 SW23      30.13F WCI -11
MOOSE JAW      PTSUNNY    7   0  73 SW12      30.29F WCI  -9
REGINA         PTSUNNY   -2  -8  75 S9        30.31F WCI -18
VAL MARIE      N/A        1  -2  87 S12        N/A   WCI -16
ASSINIBOIA     N/A        7   0  73 SW13       N/A   WCI  -9
CORONACH       N/A        7   0  73 SW14       N/A   WCI -10

$$




USA.gov is the U.S. government's official web portal to all federal, state and local government web resources and services.